カタログに戻る

FENGYUN 1C DEB *

LostSSO
NORAD 47020·DEBRIS·🇨🇳 China

打ち上げ May 10, 1999 から Taiyuan Satellite Launch Center

Loading…

次のパス (今後24時間)

TLE

古いSource: Space-Track

元期: Oct 15, 2021, 03:16 UTC

1 47020U 99025FAW 21288.13668615  .00001284  00000-0  75378-3 0  9993
2 47020  98.5079 321.0647 0106769 241.9598 145.3249 14.07002334470602

AllMySatでFENGYUN 1C DEB *をリアルタイム追跡

Download on the App Store